Miscellaneous Local Product
Issued by NWS Hastings, NE

Home | Current Version | Previous Version | Graphics & Text | Print | Product List | Glossary On
Versions: 1 2 3 4 5 6 7 8 9 10 11 12 13 14 15 16 17 18 19 20 21 22 23 24 25 26 27 28 29 30 31 32 33 34 35 36 37 38 39 40 41 42 43 44 45 46 47 48 49 50
426
AXUS43 KGID 271602
MISGRI

GID CWA HOURLY WEATHER ROUNDUP
NATIONAL WEATHER SERVICE HASTINGS NE
1100 AM CDT THU APR 27 2017

NOTE: "FAIR" INDICATES FEW OR NO CLOUDS BELOW 12,000 FEET WITH NO
SIGNIFICANT WEATHER AND/OR OBSTRUCTIONS TO VISIBILITY.

...SOUTH CENTRAL NEBRASKA...

CITY           SKY/WX    TMP DP  RH WIND       PRES   REMARKS
GRAND ISLAND   SUNNY     47  32  56 VRB3      29.73S
HASTINGS       CLOUDY    46  32  58 CALM      29.73F
KEARNEY        CLOUDY    45  28  53 CALM      29.72S
ORD            SUNNY     47  32  56 N3        29.70R
YORK           SUNNY     46  30  53 N3        29.73S
AURORA         SUNNY     49  31  50 NW5       29.72S
LEXINGTON      CLOUDY    47  32  56 E8        29.69S
HOLDREGE       CLOUDY    43  30  61 SE7       29.71R
HEBRON         CLOUDY    47  32  55 CALM      29.75R

...NEBRASKA PANHANDLE...

CITY           SKY/WX    TMP DP  RH WIND       PRES   REMARKS
CHADRON        CLOUDY    42  34  73 N10       29.61F
ALLIANCE       CLOUDY    43  33  68 S12       29.59S
SCOTTSBLUFF    CLOUDY    44  37  76 E9        29.57F
SIDNEY         CLOUDY    43  39  86 E7        29.59F

...WESTERN AND NORTH CENTRAL NEBRASKA...

CITY           SKY/WX    TMP DP  RH WIND       PRES   REMARKS
VALENTINE      SUNNY     45  29  53 E5        29.68S
AINSWORTH      SUNNY     42  33  70 NE6       29.68F
ONEILL         CLOUDY    37  30  74 N12       29.71F WCI  30
BROKEN BOW     CLOUDY    44  30  57 SE3       29.68F
IMPERIAL       CLOUDY    46  34  62 SE16      29.61S
NORTH PLATTE   CLOUDY    47  34  60 E12       29.66S
MCCOOK         CLOUDY    44  33  65 SE13      29.66F

...EASTERN NEBRASKA...

CITY           SKY/WX    TMP DP  RH WIND       PRES   REMARKS
NORFOLK        CLOUDY    37  30  75 N12       29.70F WCI  29
SO SIOUX CITY  CLOUDY    39  30  70 NW16G24   29.72S WCI  30
TEKAMAH        CLOUDY    42  30  62 NW15      29.73S
COLUMBUS       SUNNY     43  30  61 NW6       29.74R
ALBION         MOSUNNY   40  32  71 N12       29.72S WCI  34
OMAHA EPPLEY   CLOUDY    42  31  64 N6        29.73S
OFFUTT AFB     CLOUDY    42  32  67 W8        29.73R
MILLARD        CLOUDY    42  33  72 NW7       29.74R
LINCOLN        SUNNY     48  31  51 VRB5      29.76R
NEBRASKA CITY  MOSUNNY   46  31  55 NW7       29.74R
BEATRICE       SUNNY     49  33  54 NW8       29.75R
FALLS CITY     SUNNY     50  35  56 W13       29.74R

...NORTHERN KANSAS...

CITY           SKY/WX    TMP DP  RH WIND       PRES   REMARKS
GOODLAND       CLOUDY    51  35  54 S17       29.57F
HILL CITY      CLOUDY    48  35  60 SE14G21   29.68F
NORTON         CLOUDY    45  30  57 E12       29.68F
PHILLIPSBURG   CLOUDY    48  32  53 SE9       29.72S
SMITH CENTER   CLOUDY    48  32  53 SE7       29.73F
HAYS           PTSUNNY   50  36  58 SE17      29.70F
RUSSELL        CLOUDY    50  35  56 SE13      29.70F
CONCORDIA      PTSUNNY   49  34  56 CALM      29.75F
SALINA         MOSUNNY   52  35  52 SE8       29.76F
TOPEKA         SUNNY     53  36  52 W13       29.79R



USA.gov is the U.S. government's official web portal to all federal, state and local government web resources and services.